Regional Weather Roundup
Issued by NWS

Home | Current Version | Previous Version | Graphics & Text | Print | Product List | Glossary On
Versions: 1 2 3 4 5 6 7 8 9 10 11 12 13 14 15 16 17 18 19 20 21 22 23 24 25 26 27 28 29 30 31 32 33 34 35 36 37 38 39 40 41 42 43 44 45 46 47 48 49 50
000
ASUS43 KMPX 260910
RWRMN
WEATHER ROUNDUP FOR MINNESOTA
NATIONAL WEATHER SERVICE TWIN CITIES/CHANHASSEN MN
400 AM CDT SAT JUL 26 2014


NOTE: "FAIR" INDICATES FEW OR NO CLOUDS BELOW 12,000 FEET WITH NO
SIGNIFICANT WEATHER AND/OR OBSTRUCTIONS TO VISIBILITY. N/A MEANS
CURRENT SKY AND/OR WEATHER CONDITIONS ARE NOT AVAILABLE.

MNZ060>063-068>070-261000-
   Twin Cities Metro

CITY           SKY/WX    TMP DP  RH WIND       PRES   REMARKS
TWIN CITIES    CLOUDY    74  69  85 W7        29.80S
ST PAUL        CLOUDY    72  70  93 S5        29.80S
CRYSTAL        PTCLDY    74  69  85 W6        29.79S
BLAINE         CLOUDY    75  72  88 W5        29.80S
LAKEVILLE      CLOUDY    70  68  94 CALM      29.81R
EDEN PRAIRIE   CLOUDY    73  69  87 W3        29.80R
SOUTH ST PAUL  CLOUDY    73  69  88 S3        29.80R
LAKE ELMO      CLOUDY    70  70 100 SW3       29.81S
$$
MNZ001>005-007-008-013>017-022>024-027-028-261000-
   Northwest Minnesota

CITY           SKY/WX    TMP DP  RH WIND       PRES   REMARKS
BEMIDJI        CLEAR     59  54  85 SW3       29.79S
HALLOCK        CLEAR     55  54  94 SE6       29.73F
ROSEAU         CLEAR     57  54  88 SW5       29.75S
WARROAD        CLEAR     57  54  88 SW6       29.75S
THIEF RVR FALL CLEAR     57  54  88 CALM      29.78S
CROOKSTON      CLEAR     61  55  82 SE3       29.77F
FOSSTON        CLEAR     52  50  93 S5        29.80S
DETROIT LAKES  CLEAR     61  55  82 CALM      29.83S
MOORHEAD       CLEAR     61  59  94 S3        29.81S
PARK RAPIDS    CLEAR     54  53  97 W5        29.81R
$$
MNZ006-009>011-018-025>026-261000-
   North Central Minnesota

CITY           SKY/WX    TMP DP  RH WIND       PRES   REMARKS
BAUDETTE       CLEAR     58  53  84 CALM      29.76R
FLAG ISLAND    CLEAR     63  54  72 W12       29.72R
INTL FALLS     CLEAR     55  54  96 CALM      29.74S
WASKISH        CLEAR     68  57  68 W10       29.76S
BIG FORK         N/A     57  55  94 SW1       29.78S VSB 3/4
LONGVILLE      CLEAR     57  55  94 CALM      29.80R
GRAND RAPIDS   CLEAR     59  55  88 CALM      29.79S
CRANE LAKE     CLEAR     61  57  88 SW3       29.75S
ORR            CLEAR     59  57  94 CALM      29.74S
COOK           CLEAR     61  59  94 CALM      29.77S
$$
MNZ012-019>021-037-261000-
   Northeast Minnesota

CITY           SKY/WX    TMP DP  RH WIND       PRES   REMARKS
DULUTH         PTCLDY    70  66  87 NW9       29.77S
ELY            CLEAR     64  63  94 W3        29.75F
HIBBING        FOG       56  54  93 CALM      29.77S VSB 1/2
EVELETH        PTCLDY    63  63 100 CALM      29.78S
DULUTH HARBOR  PTCLDY    70  66  88 SW10      29.74F
TWO HARBORS    CLOUDY    66  63  88 W3        29.73F
SILVER BAY     PTCLDY    64  64 100 CALM      29.72F
GRAND MARAIS     N/A     54  53  97 CALM      29.72F
G MARAIS ARPRT CLOUDY    64  61  88 CALM      29.76F FOG
$$
MNZ029>031-032-039>041-046>048-054>057-064-261000-
   West Central Minnesota

CITY           SKY/WX    TMP DP  RH WIND       PRES   REMARKS
FERGUS FALLS   CLEAR     55  54  94 W6        29.83R
WHEATON          N/A     61  61 100 S2        29.84S
MORRIS         FOG       59  57  94 W3        29.83R VSB<1/4
ALEXANDRIA     CLEAR     60  58  92 SW5       29.84R
ELBOW LAKE     FAIR      58  58  99 SW9       29.84R FOG
WADENA         CLEAR     54  52  94 CALM      29.81S
GLENWOOD       CLEAR     63  61  94 W3        29.84S
APPLETON       FOG       63  61  94 W5        29.82S VSB 1/4
BENSON         FOG       57  57 100 CALM      29.82S VSB<1/4
ORTONVILLE     PTCLDY    63  61  94 CALM      29.82F FOG
MADISON        FOG       63  61  94 CALM      29.82F VSB 3/4
WILLMAR        FOG       63  61  94 CALM      29.82F VSB 1/4
$$
MNZ033>034-036-042>043-049>051-058-059-261000-
   Central Minnesota

CITY           SKY/WX    TMP DP  RH WIND       PRES   REMARKS
ST CLOUD       CLEAR     67  64  90 W3        29.80F FOG
SAUK CENTRE    FOG       60  60  99 CALM      29.82S VSB<1/4
PAYNESVILLE    FOG       59  59 100 CALM      29.82F VSB<1/4
AITKIN         CLEAR     66  61  82 CALM      29.79R HAZE
PINE RIVER     CLEAR     61  61 100 CALM      29.84S
BRAINERD       CLEAR     61  60  97 CALM      29.80S
STAPLES        CLEAR     55  55 100 CALM      29.81S
LONG PRAIRIE   FOG       57  55  94 CALM      29.81F VSB 1/4
LITTLE FALLS   FOG       61  59  94 CALM      29.80F VSB 1/2
LITCHFIELD     PTCLDY    70  70 100 CALM      29.82F
BUFFALO        CLEAR     71  67  87 CALM      29.81F
MAPLE LAKE     CLEAR     70  68  95 CALM      29.82S
$$
MNZ037-044-045-052-053-261000-
   East Central Minnesota

CITY           SKY/WX    TMP DP  RH WIND       PRES   REMARKS
PRINCETON        N/A     68  66  94 CALM      29.81R FOG
MORA           PTCLDY    68  64  88 CALM      29.80F
CAMBRIDGE      CLEAR     72  63  73 CALM      29.78S
RUSH CITY        N/A     65  64  96 CALM      29.78F FOG
MOOSE LAKE     PTCLDY    68  66  94 W5        29.76S
HINCKLEY       PTSUNNY   66  66 100 CALM      29.78S FOG
CLOQUET        CLEAR     68  64  88 W6        29.78S
MCGREGOR       CLEAR     66  64  94 CALM      29.80R
$$
MNZ071>073-080-081-089-090-097-098-261000-
   Southwest Minnesota

CITY           SKY/WX    TMP DP  RH WIND       PRES   REMARKS
MONTEVIDEO     PTCLDY    64  63  94 CALM      29.83S FOG
GRANITE FALLS  FOG       63  63  99 W3        29.84S VSB 1/4
CANBY          PTCLDY    63  62  97 CALM      29.84S
MARSHALL       PTCLDY    64  63  94 SW8       29.83R
REDWOOD FALLS  PTCLDY    69  68  96 CALM      29.81F FOG
OLIVIA         CLEAR     68  64  88 CALM      29.81F FOG
PIPESTONE      MOCLDY    70  66  88 S3        29.86S
WINDOM         PTCLDY    70  68  94 N5        29.84F FOG
WORTHINGTON    CLOUDY    72  70  94 N7        29.86F
JACKSON        CLOUDY    72  68  88 CALM      29.86R
TRACY          MOCLDY    68  67  96 CALM      29.84S FOG
SLAYTON        MOCLDY    68  68  98 CALM      29.87R FOG
$$
MNZ065>067-074>077-082>085-091>093-261000-
   South Central Minnesota

CITY           SKY/WX    TMP DP  RH WIND       PRES   REMARKS
MANKATO        MOCLDY    72  66  83 W6        29.81F
NEW ULM        PTCLDY    70  70 100 CALM      29.82F
ST JAMES       PTCLDY    72  70  94 CALM      29.83F
FAIRMONT       CLOUDY    72  66  83 W5        29.83F
GLENCOE        CLEAR     72  67  87 CALM      29.80F
FARIBAULT      MOCLDY    73  66  78 CALM      29.82S HAZE
OWATONNA       PTCLDY    72  68  88 CALM      29.83R FOG
WASECA         PTCLDY    66  63  88 SW3       29.84S FOG
ALBERT LEA     CLOUDY    72  70  94 CALM      29.84R FOG
$$
MNZ078>079-086>088-094>096-261000-
   Southeast Minnesota

CITY           SKY/WX    TMP DP  RH WIND       PRES   REMARKS
ROCHESTER      CLOUDY    69  67  93 S6        29.85R FOG
RED WING       CLOUDY    72  70  94 S3        29.80S
STANTON        CLOUDY    71  68  91 CALM      29.80R FOG
DODGE CENTER   CLOUDY    70  70 100 SW6       29.84R FOG
WINONA         CLOUDY    70  64  83 CALM      29.81S
AUSTIN         CLOUDY    70  70 100 SW3       29.84R FOG
PRESTON        CLOUDY    66  66 100 S6        29.85S FOG
$$
ABBREVIATIONS USED IN REMARKS
   TC - TEMPERATURES IN CELSIUS
  WCI - WIND CHILL INDEX
   HX - HEAT INDEX
  VSB - VISIBILITY
$$


USA.gov is the U.S. government's official web portal to all federal, state and local government web resources and services.